Location: Newark
(23.3970°S, 47.6010°W)
Time: 13:18:33
(UTC+00:00)

deb Explorer IX - Pass Details

Date: 26 February 2020
Orbit: 547 x 1100 km, 38.8° (Epoch: 04 April)

Event Time Altitude Azimuth Distance (km) Brightness Sun altitude
Rises 21:40:36 0° 314° (NW) 3,106 ? -0.5°
Reaches altitude 10° 21:42:52 10° 317° (NW) 2,270 ? -1.0°
Maximum altitude 21:48:11 63° 38° (NE) 938 ? -2.2°
Drops below altitude 10° 21:54:30 10° 117° (ESE) 2,676 ? -3.6°
Sets 21:57:21 0° 120° (ESE) 3,707 ? -4.3°
